Preview of NWS' New Version of Forecast
This preview is not operational and should not be used for support decisions.

Regional Weather Roundup (RWR)

Issued by National Weather Service (NWS)

                            
000
ASUS42 KTBW 211917
RWRFL 
FLORIDA REGIONAL WEATHER ROUNDUP
NATIONAL WEATHER SERVICE TAMPA BAY RUSKIN FL
300 PM EDT SAT SEP 21 2019

NOTE: "FAIR" INDICATES FEW OR NO CLOUDS BELOW 12,000 FEET WITH NO
SIGNIFICANT WEATHER AND/OR OBSTRUCTIONS TO VISIBILITY.

FLZ001>010-012>015-112-114-115-212000-
PANHANDLE FLORIDA
  
CITY           SKY/WX    TMP DP  RH WIND       PRES   REMARKS
PENSACOLA      FAIR      86  68  54 SE17      30.16F                  
PENSACOLA NAS  FAIR      87  69  54 SE17      30.16F                  
MILTON NAS     FAIR      90  62  39 E12       30.15F                  
CRESTVIEW      PTSUNNY   90  60  36 MISG      30.17F                  
DUKE FIELD     FAIR      88  60  38 E7G17     30.16F                  
VALPARAISO     FAIR      88  66  47 S12       30.15F                  
MARY ESTHER    MOSUNNY   87  68  53 SE13      30.15F                  
TRI COUNTY     FAIR      87  58  37 NE12G18   30.17F                  
PANAMA CITY    FAIR      89  56  32 NE10      30.14F                  
TYNDALL AFB    PTSUNNY   87  60  40 E10       30.14F                  
APALACHICOLA   FAIR      87  62  43 E15G21    30.16F                  

STATION/POSITION SKY/WX   TEMP    WIND        PRES    WAVE   SWELL
                          AIR SEA DIR/SP/G            HT/PER HT/PER
                          (F)     (DEG/KT/KT) (MB)    (FT/S) (FT/S)
30.1N   87.6W              81 84  100/ 17/ 23 1021.2F   7/ 8
29.2N   88.2W              83     100/ 19/ 23 1020.2F
28.8N   86.0W                 85   90/ 19/ 23 1020.1F   7/ 7
PANAMA CITY BEAC           85 83   80/  9/ 15 1021.9F
TOWER C                    80      70/ 20/ 22 1021.0F
28.5N   84.5W              81      60/ 16/ 19 1020.6F   6/ 6

$$
FLZ011-016>038-118-127-128-134-139-239-212000-
NORTH FLORIDA
  
CITY           SKY/WX    TMP DP  RH WIND       PRES   REMARKS
MARIANNA       PTSUNNY   87  58  37 E8        30.16F                  
TALLAHASSEE    FAIR      88  61  40 E15G21    30.16F                  
PERRY          PTSUNNY   86  65  50 NE10G17   30.17F                  
LIVE OAK       PTSUNNY   86  63  45 E13G20    30.17F                  
CROSS CITY       N/A     87  65  48 NE7       30.15F                  
LAKE CITY      CLOUDY    82  59  44 E10G17    30.18F                  
GAINESVILLE    PTSUNNY   84  64  50 E13G25    30.19F                  
WILLISTON      PTSUNNY   85  62  45 NE15G22   30.15F                  
PALATKA        FAIR      82  61  47 E16G22    30.17F                  
MAYPORT NAS    PTSUNNY   84  65  52 E14       30.20F                  
JACKSONVILLE   PTSUNNY   85  63  47 E21       30.19F                  
JAX NAS        PTSUNNY   82  66  58 NE10      30.20F                  
JAX CECIL      PTSUNNY   82  66  57 E13G20    30.20S                  
FERNANDINA BEA CLOUDY    83  65  54 NE16      30.21F                  
ST AUGUSTINE   FAIR      82  32  16 E16       30.20F                  
PALM COAST     CLOUDY    84  63  48 E10       30.18F                  

STATION/POSITION SKY/WX   TEMP    WIND        PRES    WAVE   SWELL
                          AIR SEA DIR/SP/G            HT/PER HT/PER
                          (F)     (DEG/KT/KT) (MB)    (FT/S) (FT/S)
SHELL POINT      NOT AVBL
KEATON BEACH               85      60/ 11/ 17 1020.9F
CEDAR KEY                  83      80/ 15/ 18 1020.4F
FERNANDINA                 88 81   30/ 10/ 17 1023.9
30.7N   81.3W                 82                N/A     5/ 5   2/14
MAYPORT                    81 81   70/  9/ 14 1023.4
31.4N   80.9W              80 81   70/ 10/ 12 1023.4F   4/ 8   3/ 8
ST AUGUSTINE               81 81   60/ 15/ 17 1022.2F

$$
FLZ040-043>046-052-053-057-058-063-144-212000-
INTERIOR CENTRAL FLORIDA
  
CITY           SKY/WX    TMP DP  RH WIND       PRES   REMARKS
OCALA          PTSUNNY   86  60  41 E12       30.15F                  
LEESBURG       PTSUNNY   86  64  47 E12G21    30.15F                  
SANFORD        PTSUNNY   84  63  49 NE16      30.14F                  
ORLANDO EXEC   CLOUDY    84  63  49 NE14      30.14F                  
ORLANDO INTL   CLOUDY    83  64  52 NE15G23   30.14F                  
KISSIMMEE      PTSUNNY   85  66  53 E13       30.14F                  
WINTER HAVEN   FAIR      88  66  48 E18G26    30.13F                  
LAKELAND       PTSUNNY   86  66  51 E17G24    30.12F                  
BARTOW         PTSUNNY   86  66  51 NE17G23   30.11F                  
SEBRING        MOCLDY    85  71  61 NE21G28   30.09F                  
OKEECHOBEE     CLOUDY    84  70  61 E9G20     30.08F                  

$$
FLZ041-047-054-059-064-141-147-212000-
EAST CENTRAL FLORIDA
  
CITY           SKY/WX    TMP DP  RH WIND       PRES   REMARKS
ORMOND BEACH   CLOUDY    82  66  57 MISG      30.17F                  
DAYTONA BEACH  PTSUNNY   81  66  60 E18       30.17F                  
DELAND         CLOUDY    82  68  61 E16G23    30.16S                  
NEW SMYRNA BEA PTSUNNY   82  66  57 E14G21    30.18F                  
JFK SPACE CTR  SUNNY     84  70  61 E15       30.14F                  
TITUSVILLE     PTSUNNY   86  68  54 E14       30.15F                  
CAPE CANAVERAL FAIR      84  70  61 E15G25    30.12F                  
PATRICK AFB    FAIR      83  71  65 E16       30.12F                  
MELBOURNE      CLOUDY    84  69  60 NE18      30.12F                  
VERO BEACH     CLOUDY    84  69  60 E16G28    30.11F                  
FT PIERCE      CLOUDY    83  69  62 E15       30.10F                  
STUART         MOSUNNY   86  70  58 E22G29    30.10F                  

STATION/POSITION SKY/WX   TEMP    WIND        PRES    WAVE   SWELL
                          AIR SEA DIR/SP/G            HT/PER HT/PER
                          (F)     (DEG/KT/KT) (MB)    (FT/S) (FT/S)
28.5N   80.2W              81 83   60/ 19/ 25 1020.7F  10/12   8/12
28.9N   78.5W              79 80   70/ 19/ 25 1021.3F  10/14   8/14
TRIDENT PIER               85 82   50/ 15/ 19 1022.3
28.4N   80.5W                 81                N/A     5/13   2/13
27.5N   80.2W                 82                N/A     8/13   5/13

$$
FLZ050-056-061-142-242-148-248-149-249-151-251-155-255-
160-260-212000-
WEST CENTRAL FLORIDA
  
CITY           SKY/WX    TMP DP  RH WIND       PRES   REMARKS
CRYSTAL RIVER  PTSUNNY   88  64  45 E14G21    30.12F                  
INVERNESS      PTSUNNY   88  68  51 E8G17     30.13F                  
BROOKSVILLE    PTSUNNY   89  63  41 NE15      30.11F                  
CLEARWATER AIR FAIR      88  63  42 E10G17    30.09F                  
ST PETE CLEARW FAIR      90  66  45 E14       30.08F                  
TAMPA INTL     PTSUNNY   89  63  41 E10G20    30.09F                  
TAMPA EXEC     FAIR      90  70  51 E14       30.09F HX  95           
PLANT CITY     PTSUNNY   88  72  58 E14G20    30.12F                  
MACDILL AFB    FAIR      89  66  46 E13       30.08F                  
PETER O KNIGHT FAIR      90  68  48 E14G20    30.09F                  
ST PETERSBURG  FAIR      86  69  56 E16       30.07F                  
SARASOTA       FAIR      91  67  44 NE17      30.04F                  
VENICE         FAIR      91  68  46 E15G25    30.05F HX  95           

STATION/POSITION SKY/WX   TEMP    WIND        PRES    WAVE   SWELL
                          AIR SEA DIR/SP/G            HT/PER HT/PER
                          (F)     (DEG/KT/KT) (MB)    (FT/S) (FT/S)
27.3N   84.2W                 84                N/A     6/ 6
CLEARWATER BEACH           87 84   50/  8/ 15 1019.3
MIDDLE TAMPA BAY           84      90/ 13/ 15 1019.1
VENICE                     87 84   50/ 13/ 17 1017.4F

$$
FLZ066-069-070-075>078-162-262-165-265-212000-
SOUTHWEST FLORIDA AND KEYS
  
CITY           SKY/WX    TMP DP  RH WIND       PRES   REMARKS
PUNTA GORDA    FAIR      90  69  50 E20G29    30.06F                  
FT MYERS       FAIR      89  70  53 E18G29    30.03F                  
SOUTHWEST INTL PTSUNNY   88  71  57 E18G28    30.04F                  
NAPLES         FAIR      91  73  55 E20G30    30.02F HX  99           
MARCO ISLAND   FAIR      90  72  55 E13G24    30.03F HX  97           
IMMOKALEE      FAIR      90  72  55 NE20G28   30.02F HX  96           
MARATHON       PTSUNNY   80  76  87 NE24G31   29.99S                  
KEY WEST NAS   PTSUNNY   85  76  74 NE18G25   29.99S                  
KEY WEST INTL  CLOUDY    84  76  76 NE14G23   29.99F                  

STATION/POSITION SKY/WX   TEMP    WIND        PRES    WAVE   SWELL
                          AIR SEA DIR/SP/G            HT/PER HT/PER
                          (F)     (DEG/KT/KT) (MB)    (FT/S) (FT/S)
NAPLES                     88 84   70/  9/ 17 1016.7
26.0N   85.6W              83 85   80/ 17/ 21 1017.6F   9/ 8
DRY TORTUGAS               83      80/ 24/ 26 1015.7F
SAND KEY                   81      70/ 19/ 23 1014.7
SOMBRERO KEY               80      50/ 21/ 27 1017.2
LONG KEY                   80                 1014.3

$$
FLZ067-068-071>074-168-172>174-212000-
SOUTHEAST FLORIDA 
  
CITY           SKY/WX    TMP DP  RH WIND       PRES   REMARKS
W PALM BEACH   PTSUNNY   86  71  60 NE21G31   30.07F                  
BOCA RATON     MOSUNNY   86  72  62 E23G35    30.06F                  
FT LAUDER-EXEC FAIR      84  72  67 NE17G30   30.04F                  
FT LAUDERDALE  PTSUNNY   83  73  72 E22G31    30.03F                  
POMPANO BEACH  PTSUNNY   85  72  65 NE21G30   30.05F                  
PEMBROKE PINES CLOUDY    85  72  65 NE26G33   30.05F                  
OPA LOCKA      LGT RAIN  84  73  69 NE20G32   30.04S                  
MIAMI          LGT RAIN  82  73  74 NE16G24   30.03F                  
WEST KENDALL   HVY RAIN  78  75  90 NE20G35   30.02F VSB 1            
HOMESTEAD      CLOUDY    79  75  89 NE14      30.00S                  

STATION/POSITION SKY/WX   TEMP    WIND        PRES    WAVE   SWELL
                          AIR SEA DIR/SP/G            HT/PER HT/PER
                          (F)     (DEG/KT/KT) (MB)    (FT/S) (FT/S)
VIRGINIA KEY               81 84   20/ 12/ 20 1016.5
LAKE WORTH                 81 82   50/ 23/ 27 1019.5
FOWEY ROCKS